Home > Weather > Glasgow > Past weeks

Flag for United Kingdom Past Weather in Glasgow, Scotland, United Kingdom — Yesterday and Last 2 Weeks

Now
55 °F

Drizzle. Partly sunny.


Feels Like: 52 °F
Forecast: 53 / 60 °F
Wind: 13 mph from Southwest

Location: Glasgow Airport

Current Time: Jul 25, 2016 at 7:28:29 AM

Latest Report: Jul 25, 2016 at 6:50 AM


Visibility: 3 mi

Pressure: 29.89 "Hg

Humidity: 94%

Dew Point: 54 °F

Location of GlasgowLocation

Past Weather in Glasgow — Graph

°F

Glasgow Temperature Yesterday

Maximum temperature yesterday: 63 °F (at 2:50 PM)
Minimum temperature yesterday: 57 °F (at 2:50 AM)
Average temperature yesterday: 59 °F

High & Low Weather Summary for the Past Weeks

 TemperatureHumidityPressure
High82 °F (Jul 19, 3:20 PM)100% (Jul 11, 1:20 AM)30.24 "Hg (Jul 11, 1:20 AM)
Low45 °F (Jul 14, 1:20 AM)48% (Jul 19, 5:20 PM)29.39 "Hg (Jul 11, 1:20 AM)
Average60 °F82%29.94 "Hg
* Reported Jul 10 6:20 AM — Jul 25 6:20 AM, Glasgow, Weather by CustomWeather, © 2016

Note: Actual official high and low records may vary slightly from our data, if they occured in-between our weather recording intervals... More about our weather records

Advertising

Glasgow Weather History for the Previous 24 Hours

Scroll right to see more
 ConditionsComfort  
Time TempWeatherWind HumidityBarometerVisibility
6:20 AM
Mon, Jul 25
55 °FLight rain. Scattered clouds.13 mph94%29.89 "Hg4 mi
5:50 AM55 °FPassing clouds.10 mph94%29.89 "HgN/A
5:20 AM55 °FPartly cloudy.10 mph94%29.89 "HgN/A
4:50 AM55 °FDrizzle. Mostly cloudy.8 mph94%29.89 "Hg3 mi
4:20 AM55 °FPassing clouds.3 mph94%29.89 "HgN/A
3:50 AM55 °FPassing clouds.5 mph94%29.89 "HgN/A
3:20 AM55 °FMostly cloudy.5 mph88%29.92 "HgN/A
2:50 AM55 °FPassing clouds.9 mph88%29.92 "HgN/A
2:20 AM55 °FPassing clouds.9 mph94%29.92 "HgN/A
1:50 AM57 °FMostly cloudy.8 mph88%29.89 "HgN/A
1:20 AM57 °FPartly cloudy.10 mph94%29.89 "HgN/A
12:50 AM57 °FPassing clouds.7 mph94%29.89 "HgN/A
12:20 AM57 °FPassing clouds.6 mph94%29.89 "HgN/A
11:50 PM
Sun, Jul 24
57 °FPassing clouds.6 mph100%29.89 "HgN/A
11:20 PM57 °FMostly cloudy.3 mph100%29.89 "HgN/A
10:50 PM59 °FMostly cloudy.2 mph94%29.89 "HgN/A
10:20 PM59 °FLight rain. Overcast.3 mph94%29.89 "HgN/A
9:50 PM57 °FLight rain. Partly sunny.6 mph100%29.89 "HgN/A
9:20 PM59 °FLight rain. Partly sunny.5 mph94%29.89 "HgN/A
8:50 PM59 °FLight rain. Scattered clouds.6 mph94%29.89 "HgN/A
8:20 PM59 °FLight rain. Broken clouds.2 mph94%29.89 "HgN/A
7:50 PM59 °FPartly sunny.2 mph94%29.89 "HgN/A
7:20 PM59 °FLight rain. Scattered clouds.2 mph94%29.89 "HgN/A
6:50 PM59 °FHeavy rain. Partly sunny.7 mph94%29.89 "Hg1 mi
6:20 PM61 °FMostly cloudy.2 mph94%29.89 "Hg3 mi
5:50 PM61 °FPartly sunny.6 mph94%29.89 "Hg2 mi
5:20 PM61 °FMostly cloudy.7 mph88%29.89 "HgN/A
4:50 PM61 °FMostly cloudy.5 mph94%29.92 "HgN/A
4:20 PM61 °FDrizzle. Partly sunny.6 mph94%29.92 "Hg3 mi
3:50 PM61 °FDrizzle. Mostly cloudy.8 mph94%29.92 "Hg2 mi
3:20 PM63 °FCloudy.5 mph88%29.92 "HgN/A
2:50 PM63 °FBroken clouds.5 mph88%29.95 "HgN/A
2:20 PM61 °FDrizzle. Partly sunny.5 mph94%29.95 "Hg3 mi
1:50 PM61 °FLight rain. Mostly cloudy.5 mph94%29.95 "HgN/A
1:20 PM61 °FLight rain. Broken clouds.6 mph94%29.95 "HgN/A
12:50 PM61 °FLight rain. Partly sunny.5 mph88%29.98 "HgN/A
12:20 PM59 °FLight rain. Low clouds.6 mph94%29.98 "HgN/A
11:50 AM59 °FLow clouds.6 mph94%29.98 "HgN/A
11:20 AM59 °FLight rain. Partly sunny.3 mph88%29.98 "HgN/A
10:50 AM59 °FLight rain. Partly sunny.5 mph94%29.98 "Hg5 mi
10:20 AM59 °FMore clouds than sun.5 mph88%29.98 "HgN/A
9:50 AM59 °FLow clouds.3 mph88%29.98 "HgN/A
9:20 AM59 °FMostly cloudy.5 mph88%30.01 "HgN/A
8:50 AM59 °FMore clouds than sun.1 mph88%30.01 "HgN/A
8:20 AM59 °FLow clouds.2 mph88%30.01 "HgN/A
7:50 AM59 °FMore clouds than sun.1 mph88%30.01 "HgN/A
7:20 AM57 °FBroken clouds.2 mph94%30.01 "HgN/A
Weather by CustomWeather, © 2016

See weather overviewHow to use our weather pages